This is the latest recevied weather packets stored in our database for station/object K5BV. If no packets are shown the sender has not sent any weather packets the latest 10 day(s).
| Time | Temp. | Humidity | Pressure | Rain* | Wind** | Luminosity | Snow |
|---|---|---|---|---|---|---|---|
| 1777820559 | 23.33° C | 68% | 1023.7 hPa | 0 mm | - | - | - |
| 1777819958 | 22.78° C | 74% | 1023.5 hPa | 0 mm | - | - | - |
| 1777819359 | 22.78° C | 77% | 1023.5 hPa | 0 mm | - | - | - |
| 1777818798 | 22.22° C | 79% | 1023.6 hPa | 0 mm | - | - | - |
| 1777818162 | 21.67° C | 82% | 1023.4 hPa | 0 mm | - | - | - |
| 1777817563 | 20.56° C | 84% | 1023.4 hPa | 0 mm | - | - | - |
| 1777816958 | 20° C | 88% | 1023.6 hPa | 0 mm | - | - | - |
| 1777816359 | 19.44° C | 91% | 1023.4 hPa | 0 mm | - | - | - |
| 1777815161 | 18.89° C | 89% | 1023.4 hPa | 0 mm | - | - | - |
| 1777814559 | 18.33° C | 91% | 1023.2 hPa | 0 mm | - | - | - |
| 1777813960 | 18.33° C | 92% | 1023 hPa | 0 mm | - | - | - |
| 1777813363 | 17.78° C | 92% | 1022.6 hPa | 0 mm | - | - | - |
| 1777812760 | 17.78° C | 93% | 1022.3 hPa | 0 mm | - | - | - |
| 1777812159 | 17.22° C | 93% | 1022 hPa | 0 mm | - | - | - |
| 1777811559 | 16.67° C | 92% | 1021.8 hPa | 0 mm | - | - | - |
| 1777810960 | 16.67° C | 92% | 1021.8 hPa | 0 mm | - | - | - |
| 1777810359 | 16.11° C | 91% | 1021.8 hPa | 0 mm | - | - | - |
| 1777809759 | 16.67° C | 91% | 1021.8 hPa | 0 mm | - | - | - |
| 1777809159 | 16.11° C | 90% | 1021.8 hPa | 0 mm | - | - | - |
| 1777808560 | 16.67° C | 90% | 1022 hPa | 0 mm | - | - | - |
| 1777807961 | 16.67° C | 90% | 1021.8 hPa | 0 mm | - | - | - |
| 1777807360 | 16.67° C | 90% | 1021.9 hPa | 0 mm | - | - | - |
| 1777806759 | 17.22° C | 91% | 1021.9 hPa | 0 mm | - | - | - |
| 1777806159 | 17.22° C | 91% | 1021.8 hPa | 0 mm | - | - | - |
| 1777805561 | 17.22° C | 91% | 1021.9 hPa | 0 mm | - | - | - |
* Rain latest hour (hover to see other rain measurements)
** Current wind speed in m/s (hover to see current wind gust speed)